COSMOS 2529 (757)

Last updated on Fri Jun 19 2026 17:09:56 GMT+0000 (Coordinated Universal Time)

1 43687U 18086A 26169.11967451 .00000057 00000+0 00000+0 0 9999 2 43687 64.2948 192.5630 0012066 256.5324 103.3830 2.13101950 59308
UTC large
Height (km)
Speed (km/s)
/
Latitude / Longitude
Inclination (degrees)
Orbital Period (minutes)
Azimuth
Elevation
Range (km)
Doppler Factor

Next 0 passes for location: London (51.5072 / 0.1276)

No passes found over London.
COSMOS 2529 (757)